When you browse on this site, cookies collect data to enhance your experience and personalize the content and advertising you see.
Visit our Privacy Policy to learn more. By continuing to use the site, you agree to this use of cookies and data.
  • en France
  • Liste des pays
  • À 7 jours
  • Température de l'eau
  • Carte météo
  • Widgets météo
  • user-avatar
    Se connecter

    Météo par heure à Offenbach

    Ce jour, 16 Septembre, Lundi

    Heure Température Précipitation Vent Pression Humidité
    00:00 +16°C° 0 mm 0 m/s 756 mmHg 56%
    01:00 +15°C° 0 mm 0 m/s 756 mmHg 58%
    02:00 +15°C° 0 mm 0 m/s 756 mmHg 59%
    03:00 +15°C° 0 mm 0 m/s 756 mmHg 61%
    04:00 +14°C° 0 mm 0 m/s 755 mmHg 62%
    05:00 +15°C° 0 mm 0 m/s 755 mmHg 63%
    06:00 +15°C° 0 mm 0 m/s 755 mmHg 65%
    07:00 +15°C° 0 mm 0 m/s 755 mmHg 66%
    08:00 +17°C° 0 mm 0 m/s 755 mmHg 61%
    09:00 +18°C° 0 mm 0 m/s 755 mmHg 57%
    10:00 +22°C° 0 mm 1 m/s 755 mmHg 53%
    11:00 +22°C° 0 mm 1 m/s 755 mmHg 51%
    12:00 +23°C° 0 mm 1 m/s 755 mmHg 49%
    13:00 +24°C° 0 mm 1 m/s 755 mmHg 47%
    14:00 +23°C° 0 mm 2 m/s 754 mmHg 51%
    15:00 +23°C° 0 mm 2 m/s 754 mmHg 55%
    16:00 +21°C° 0 mm 2 m/s 754 mmHg 58%
    17:00 +20°C° 0 mm 2 m/s 753 mmHg 62%
    18:00 +20°C° 0 mm 2 m/s 753 mmHg 66%
    19:00 +19°C° 0 mm 2 m/s 753 mmHg 70%
    20:00 +18°C° 0 mm 2 m/s 754 mmHg 72%
    21:00 +18°C° 0 mm 2 m/s 754 mmHg 74%
    22:00 +19°C° 0 mm 1 m/s 754 mmHg 76%
    23:00 +17°C° 0 mm 2 m/s 754 mmHg 77%

    Demain, 17 Septembre, Mardi

    Heure Température Précipitation Vent Pression Humidité
    00:00 +17°C° 0 mm 2 m/s 754 mmHg 78%
    01:00 +17°C° 0 mm 2 m/s 755 mmHg 79%
    02:00 +16°C° 0 mm 2 m/s 754 mmHg 81%
    03:00 +15°C° 0 mm 2 m/s 754 mmHg 83%
    04:00 +15°C° 0 mm 2 m/s 754 mmHg 84%
    05:00 +14°C° 0 mm 2 m/s 755 mmHg 84%
    06:00 +14°C° 0 mm 2 m/s 755 mmHg 83%
    07:00 +13°C° 0 mm 2 m/s 755 mmHg 82%
    08:00 +14°C° 0 mm 2 m/s 755 mmHg 73%
    09:00 +16°C° 0 mm 2 m/s 755 mmHg 64%
    10:00 +17°C° 0 mm 2 m/s 756 mmHg 55%
    11:00 +18°C° 0 mm 2 m/s 755 mmHg 51%
    12:00 +19°C° 0 mm 3 m/s 755 mmHg 47%
    13:00 +20°C° 0 mm 3 m/s 755 mmHg 43%
    14:00 +20°C° 0 mm 4 m/s 755 mmHg 43%
    15:00 +20°C° 0 mm 4 m/s 754 mmHg 43%
    16:00 +20°C° 0 mm 4 m/s 754 mmHg 44%
    17:00 +18°C° 0 mm 4 m/s 755 mmHg 49%
    18:00 +17°C° 0 mm 4 m/s 755 mmHg 54%
    19:00 +14°C° 0 mm 3 m/s 755 mmHg 60%
    20:00 +13°C° 0 mm 3 m/s 756 mmHg 63%
    21:00 +12°C° 0 mm 3 m/s 757 mmHg 66%
    22:00 +11°C° 0 mm 3 m/s 758 mmHg 69%
    23:00 +10°C° 0 mm 3 m/s 758 mmHg 71%

    Après-demain, 18 Septembre, Mercredi

    Heure Température Précipitation Vent Pression Humidité
    00:00 +9°C° 0 mm 2 m/s 758 mmHg 72%
    01:00 +8°C° 0 mm 2 m/s 758 mmHg 73%
    02:00 +8°C° 0 mm 2 m/s 759 mmHg 74%
    03:00 +9°C° 0 mm 1 m/s 759 mmHg 76%
    04:00 +8°C° 0 mm 1 m/s 759 mmHg 77%
    05:00 +8°C° 0 mm 1 m/s 759 mmHg 77%
    06:00 +8°C° 0 mm 1 m/s 759 mmHg 76%
    07:00 +9°C° 0 mm 1 m/s 760 mmHg 75%
    08:00 +10°C° 0 mm 1 m/s 760 mmHg 67%
    09:00 +12°C° 0 mm 1 m/s 760 mmHg 59%
    10:00 +14°C° 0 mm 2 m/s 760 mmHg 51%
    11:00 +15°C° 0 mm 2 m/s 760 mmHg 47%
    12:00 +17°C° 0 mm 2 m/s 759 mmHg 42%
    13:00 +18°C° 0 mm 2 m/s 759 mmHg 38%
    14:00 +18°C° 0 mm 2 m/s 759 mmHg 37%
    15:00 +18°C° 0 mm 2 m/s 758 mmHg 37%
    16:00 +18°C° 0 mm 2 m/s 758 mmHg 36%
    17:00 +17°C° 0 mm 2 m/s 758 mmHg 42%
    18:00 +15°C° 0 mm 2 m/s 758 mmHg 47%
    19:00 +14°C° 0 mm 2 m/s 759 mmHg 53%
    20:00 +13°C° 0 mm 2 m/s 759 mmHg 58%
    21:00 +12°C° 0 mm 2 m/s 760 mmHg 63%
    22:00 +10°C° 0 mm 2 m/s 760 mmHg 68%
    23:00 +9°C° 0 mm 2 m/s 760 mmHg 70%

    19 Septembre, Jeudi

    Heure Température Précipitation Vent Pression Humidité
    00:00 +10°C° 0 mm 1 m/s 760 mmHg 72%
    01:00 +10°C° 0 mm 1 m/s 760 mmHg 73%
    02:00 +9°C° 0 mm 1 m/s 760 mmHg 75%
    03:00 +9°C° 0 mm 1 m/s 760 mmHg 76%
    04:00 +9°C° 0 mm 1 m/s 760 mmHg 78%
    05:00 +9°C° 0 mm 1 m/s 760 mmHg 78%
    06:00 +8°C° 0 mm 2 m/s 761 mmHg 79%
    07:00 +8°C° 0 mm 2 m/s 761 mmHg 79%
    08:00 +10°C° 0 mm 2 m/s 761 mmHg 72%
    09:00 +12°C° 0 mm 2 m/s 761 mmHg 64%
    10:00 +13°C° 0 mm 3 m/s 762 mmHg 56%
    11:00 +14°C° 0 mm 3 m/s 762 mmHg 51%
    12:00 +16°C° 0 mm 3 m/s 762 mmHg 45%
    13:00 +17°C° 0 mm 3 m/s 761 mmHg 40%
    14:00 +18°C° 0 mm 3 m/s 761 mmHg 39%
    15:00 +18°C° 0 mm 3 m/s 761 mmHg 38%
    16:00 +18°C° 0 mm 3 m/s 761 mmHg 37%
    17:00 +16°C° 0 mm 3 m/s 761 mmHg 43%
    18:00 +14°C° 0 mm 3 m/s 761 mmHg 49%
    19:00 +13°C° 0 mm 2 m/s 762 mmHg 55%
    20:00 +12°C° 0 mm 2 m/s 762 mmHg 58%
    21:00 +10°C° 0 mm 2 m/s 762 mmHg 61%
    22:00 +10°C° 0 mm 2 m/s 763 mmHg 63%
    23:00 +9°C° 0 mm 2 m/s 763 mmHg 66%

    20 Septembre, Vendredi

    Heure Température Précipitation Vent Pression Humidité
    00:00 +9°C° 0 mm 2 m/s 763 mmHg 68%
    01:00 +9°C° 0 mm 1 m/s 763 mmHg 70%
    02:00 +9°C° 0 mm 1 m/s 762 mmHg 72%
    03:00 +8°C° 0 mm 1 m/s 762 mmHg 74%
    04:00 +8°C° 0 mm 1 m/s 762 mmHg 76%
    05:00 +8°C° 0 mm 1 m/s 762 mmHg 75%
    06:00 +8°C° 0 mm 1 m/s 762 mmHg 74%
    07:00 +7°C° 0 mm 2 m/s 762 mmHg 74%
    08:00 +9°C° 0 mm 2 m/s 762 mmHg 66%
    09:00 +12°C° 0 mm 2 m/s 762 mmHg 57%
    10:00 +13°C° 0 mm 3 m/s 762 mmHg 49%
    11:00 +16°C° 0 mm 3 m/s 762 mmHg 44%
    12:00 +17°C° 0 mm 3 m/s 761 mmHg 39%
    13:00 +18°C° 0 mm 3 m/s 761 mmHg 33%
    14:00 +19°C° 0 mm 3 m/s 760 mmHg 33%
    15:00 +19°C° 0 mm 3 m/s 760 mmHg 32%
    16:00 +19°C° 0 mm 3 m/s 759 mmHg 32%
    17:00 +17°C° 0 mm 3 m/s 759 mmHg 38%
    18:00 +16°C° 0 mm 2 m/s 759 mmHg 44%
    19:00 +14°C° 0 mm 2 m/s 759 mmHg 50%
    20:00 +14°C° 0 mm 2 m/s 759 mmHg 53%
    21:00 +13°C° 0 mm 2 m/s 760 mmHg 56%
    22:00 +12°C° 0 mm 2 m/s 760 mmHg 59%
    23:00 +12°C° 0 mm 2 m/s 759 mmHg 62%

    21 Septembre, Samedi

    Heure Température Précipitation Vent Pression Humidité
    00:00 +10°C° 0 mm 2 m/s 759 mmHg 65%
    01:00 +10°C° 0 mm 2 m/s 759 mmHg 67%
    02:00 +9°C° 0 mm 2 m/s 759 mmHg 69%
    03:00 +9°C° 0 mm 2 m/s 758 mmHg 70%
    04:00 +8°C° 0 mm 2 m/s 758 mmHg 71%
    05:00 +8°C° 0 mm 2 m/s 758 mmHg 70%
    06:00 +8°C° 0 mm 2 m/s 758 mmHg 69%
    07:00 +8°C° 0 mm 2 m/s 758 mmHg 68%
    08:00 +10°C° 0 mm 2 m/s 757 mmHg 60%
    09:00 +12°C° 0 mm 3 m/s 757 mmHg 52%
    10:00 +16°C° 0 mm 3 m/s 757 mmHg 43%
    11:00 +17°C° 0 mm 3 m/s 757 mmHg 42%
    12:00 +19°C° 0 mm 3 m/s 756 mmHg 41%
    13:00 +20°C° 0 mm 3 m/s 756 mmHg 39%
    14:00 +21°C° 0 mm 3 m/s 755 mmHg 41%
    15:00 +21°C° 0 mm 3 m/s 755 mmHg 42%
    16:00 +22°C° 0 mm 3 m/s 754 mmHg 44%
    17:00 +20°C° 0 mm 3 m/s 754 mmHg 51%
    18:00 +18°C° 0 mm 2 m/s 754 mmHg 59%
    19:00 +16°C° 0 mm 2 m/s 754 mmHg 66%
    20:00 +16°C° 0 mm 2 m/s 754 mmHg 70%
    21:00 +15°C° 0 mm 2 m/s 754 mmHg 73%
    22:00 +15°C° 0 mm 1 m/s 754 mmHg 76%
    23:00 +14°C° 0 mm 1 m/s 754 mmHg 77%
    Voir plus